Probability
0 0 0 0 0 0 0 0 0 0 0 1 3 4 6 7 7 10 16 20 18 15 15 19 21 20 21 24 24 23 20 18 19 21 19 14 8 5 2 0 0 0 0 1
0 0 0 0 0 0 0 0 0 0 1 2 2 3 5 6 7 8 12 15 15 13 13 15 17 17 19 21 21 18 15 13 15 17 16 11 7 5 3 1 1 1 1 1
0 0 0 0 0 0 0 0 0 0 1 1 1 2 3 5 6 6 7 9 9 9 8 10 12 14 16 17 15 13 9 8 10 11 10 7 5 4 3 3 2 2 1 1
0 0 0 0 0 0 0 0 0 0 0 0 0 1 2 3 4 5 5 5 6 5 5 6 9 11 13 12 11 9 8 7 8 8 7 5 3 2 2 2 2 1 1 0
0 0 0 0 0 0 0 0 0 0 0 0 0 0 1 3 3 4 3 3 4 3 3 4 6 8 9 8 7 8 8 7 6 5 4 3 1 1 1 1 1 0 0 0
0 0 0 0 0 0 0 0 0 0 0 0 0 0 1 2 3 3 3 3 2 2 2 2 3 4 5 4 5 6 7 7 5 3 2 1 0 0 0 0 0 0 0 0
0 0 0 0 0 0 0 0 0 0 0 0 0 1 1 2 3 2 2 1 1 1 0 1 1 1 2 3 3 4 5 5 4 2 0 0 0 0 0 0 0 0 0 0
0 0 0 0 0 0 0 0 0 0 0 0 1 2 2 2 1 1 1 0 0 0 0 0 0 0 1 2 3 3 3 3 2 1 0 0 0 0 0 0 0 0 0 0
0 0 0 0 0 0 0 0 0 0 0 0 1 2 3 2 0 0 0 0 0 0 0 0 0 0 0 1 2 2 2 1 0 0 0 0 0 0 0 0 0 0 0 0
0 0 0 0 0 0 0 0 0 0 0 0 1 2 2 2 1 0 0 0 0 0 0 0 0 0 0 0 1 1 1 0 0 0 0 0 0 0 0 0 0 0 0 0
0 0 0 0 0 0 0 0 0 0 0 0 0 1 1 1 1 0 0 0 0 0 0 0 0 0 0 0 0 0 0 0 0 0 0 0 0 0 0 0 0 0 0 0
0 0 0 0 0 0 0 0 0 0 0 0 0 0 0 0 0 0 0 0 0 0 0 0 0 0 0 0 0 0 0 0 0 0 0 0 0 0 0 0 0 0 0 0
0 0 0 0 0 0 0 0 0 0 0 0 0 0 0 0 0 0 0 0 0 0 0 0 0 0 0 0 0 0 0 0 0 0 0 0 0 0 0 0 0 0 0 0
0 0 0 0 0 0 0 0 0 0 0 0 0 0 0 0 0 0 0 0 0 0 0 0 0 0 0 0 0 0 0 0 0 0 0 0 0 0 0 0 0 0 0 0
0 0 0 0 0 0 0 0 0 0 0 0 0 0 0 0 0 0 0 0 0 0 0 0 0 0 0 0 0 0 0 0 0 0 0 0 0 0 0 0 0 0 0 0
0 0 0 0 0 0 0 1 0 0 0 0 0 0 0 0 0 0 0 0 0 0 0 0 0 0 0 0 0 0 0 0 0 0 0 0 0 0 0 0 0 0 0 0
0 0 0 0 0 0 0 0 0 0 0 0 0 0 0 0 0 0 0 0 0 0 0 0 0 0 0 0 0 0 0 0 0 0 0 0 0 0 0 0 0 0 0 0
0 0 0 0 0 0 0 0 0 0 0 0 0 0 0 0 0 0 0 0 0 0 0 0 0 0 0 0 0 0 0 0 0 0 0 0 0 0 0 0 0 0 0 0
0 0 0 0 0 0 0 0 0 0 0 0 0 0 0 0 0 0 0 0 0 0 0 0 0 0 0 0 0 0 0 0 0 0 0 0 0 0 0 0 0 0 0 0
0 0 0 0 0 0 0 0 0 0 0 0 0 0 0 0 0 0 0 0 0 0 0 0 0 0 0 0 0 0 0 0 0 0 0 0 0 0 0 0 0 0 0 0
0 0 0 0 0 0 0 0 0 0 0 0 0 0 0 0 0 0 0 0 0 0 0 0 0 0 0 0 0 0 0 0 0 0 0 0 0 0 0 0 0 0 0 0
0 0 0 0 0 0 0 0 0 0 0 0 0 0 0 0 0 0 0 0 0 0 0 0 0 0 0 0 0 0 0 0 0 0 0 0 0 0 0 0 0 0 0 0
0 0 0 0 0 0 0 0 0 0 0 0 0 0 0 0 0 0 0 0 0 0 0 0 0 0 0 0 0 0 0 0 0 0 0 0 0 0 0 0 0 0 0 0
0 0 0 0 0 0 0 0 0 0 0 0 0 0 0 0 0 0 0 0 0 0 0 0 0 0 0 0 0 0 0 0 0 0 0 0 0 0 0 0 0 0 0 0
0 0 0 0 0 0 0 0 0 0 0 0 0 0 0 0 0 0 0 0 0 0 0 0 0 0 0 0 0 0 0 0 0 0 0 0 0 0 0 0 0 0 0 0
0 0 0 0 0 0 0 0 0 0 0 0 0 0 0 0 0 0 0 0 0 0 0 0 0 0 0 0 0 0 0 0 0 0 0 0 0 0 0 0 0 0 0 0
Wind_Speed
3 3 3 7 7 7 4 3 6 7 3 1 2 3 4 4 6 6 5 6 7 7 7 8 8 7 8 7 6 4 4 3 3 3 3 3 4 4 5 6 7 7 7 7
4 4 9 5 4 5 5 4 6 5 1 3 5 5 4 6 5 6 6 7 7 7 8 9 9 9 8 8 7 6 5 4 3 3 3 4 5 5 6 6 8 9 9 8
6 8 2 3 3 4 5 6 6 4 2 3 5 3 3 5 6 8 8 8 8 8 8 9 9 10 9 9 8 7 6 5 4 5 6 7 5 4 4 6 6 9 9 9
6 6 2 3 5 5 6 7 7 6 3 2 3 2 2 5 5 7 7 7 8 9 9 9 9 9 9 9 8 8 8 7 6 5 7 8 6 6 6 6 6 9 10 9
6 3 3 5 6 5 7 3 4 4 4 1 0 3 2 5 5 5 6 7 8 8 9 9 9 9 9 9 9 8 9 10 9 8 8 10 9 8 8 8 10 9 9 9
7 4 4 6 5 3 3 3 5 5 4 1 2 4 4 4 7 8 7 7 8 9 9 9 9 9 10 10 9 9 11 11 10 11 11 11 12 11 11 10 9 8 7 7
6 5 4 2 1 2 3 5 3 4 3 3 1 3 2 2 7 10 11 9 8 8 8 8 9 9 10 10 10 10 12 12 11 12 13 12 12 12 12 10 9 9 7 7
3 7 4 2 3 3 2 6 6 4 4 2 1 1 1 5 8 10 11 10 9 9 8 9 9 9 9 11 10 11 12 12 12 12 13 13 12 10 9 10 9 8 7 6
4 6 4 3 2 4 3 2 4 6 2 1 1 1 2 6 9 11 11 10 9 9 9 9 9 9 10 11 10 10 12 12 12 12 13 13 12 11 11 10 9 8 6 7
6 4 5 4 2 2 3 5 5 5 4 2 2 4 5 10 11 10 11 10 10 9 9 9 8 9 9 10 10 11 11 12 11 11 11 11 11 11 10 10 10 9 8 8
4 3 5 3 1 1 1 3 4 4 4 5 3 4 2 8 11 12 12 11 10 10 9 9 8 8 8 9 10 10 11 11 11 11 11 11 10 10 10 10 9 8 7 7
4 4 2 5 3 1 2 3 5 4 3 3 3 3 3 7 10 12 13 12 11 11 10 9 9 8 8 9 9 10 10 10 10 10 10 10 9 9 9 8 7 7 7 7
6 5 2 5 5 3 1 1 3 5 4 3 4 2 3 9 11 12 14 13 11 11 10 9 9 8 8 8 8 9 9 9 8 9 9 9 8 8 8 7 6 6 6 6
6 4 5 6 5 2 1 0 2 4 4 3 4 6 7 10 12 12 13 12 11 10 10 10 9 8 8 8 8 8 8 7 8 8 8 8 7 6 6 6 6 6 6 6
5 3 2 2 2 1 0 1 1 2 4 5 5 7 9 11 12 13 13 13 12 11 11 10 9 8 7 8 7 7 7 6 6 7 7 6 5 5 5 5 5 5 5 5
3 4 1 2 2 2 2 3 2 2 2 4 6 3 5 10 10 11 13 13 13 12 11 10 10 9 8 7 7 7 6 5 6 6 5 4 4 5 5 4 4 5 5 5
3 5 3 0 1 3 3 3 0 2 2 4 4 5 11 10 12 13 13 13 12 12 12 11 9 8 7 6 6 6 5 5 5 5 4 4 4 4 4 4 5 4 4 4
6 5 3 2 1 2 4 2 3 4 3 2 5 8 10 9 8 7 9 12 12 12 11 10 8 7 5 5 5 5 5 5 4 4 3 3 3 3 4 4 4 3 2 3
5 6 4 3 2 2 2 1 3 3 1 3 8 11 10 12 9 6 6 9 10 10 9 8 7 7 6 5 5 6 5 4 4 3 2 2 3 3 3 3 3 2 2 2
5 5 5 4 3 4 4 1 3 5 0 4 9 12 12 9 6 5 8 11 11 10 9 8 7 7 6 5 6 6 5 4 3 2 2 2 3 3 3 2 2 1 2 2
3 4 3 3 2 4 2 1 3 1 5 7 9 11 9 4 4 9 12 11 11 11 10 9 8 6 5 5 6 6 5 4 2 3 3 3 3 3 3 2 2 2 2 3
5 4 3 3 2 4 1 3 3 4 3 8 8 8 8 9 12 12 12 13 12 11 10 9 8 6 4 5 6 6 4 2 3 3 3 3 3 2 3 3 3 3 3 3
3 4 5 5 4 2 2 0 1 4 7 6 8 9 12 13 13 12 11 11 11 10 9 7 8 7 5 4 6 6 3 3 4 4 3 3 3 3 3 3 3 3 2 2
2 3 4 3 1 2 3 3 4 6 7 9 11 12 12 13 13 12 11 10 10 9 9 7 8 7 5 4 4 4 4 4 5 4 3 2 3 2 3 2 2 2 1 1
5 4 4 3 2 4 4 4 7 10 12 13 11 10 12 15 14 12 11 10 9 8 7 7 7 6 5 4 4 3 4 4 4 3 2 2 2 2 2 2 1 1 1 2
5 7 8 7 8 7 5 5 8 11 11 13 13 11 10 12 13 11 10 8 8 8 7 7 6 6 4 4 3 2 3 4 4 3 2 1 1 1 1 1 1 1 0 1
Wind_Direction
59 76 241 235 207 210 224 242 267 269 268 80 100 84 37 48 65 70 74 75 71 62 50 49 50 52 53 50 53 70 81 79 101 112 115 109 96 89 77 69 67 67 68 67
25 272 241 231 210 199 214 249 265 285 321 130 115 89 64 56 58 62 66 64 62 59 50 47 46 46 48 46 41 47 56 61 80 101 99 90 89 83 77 67 60 57 62 62
209 243 234 198 235 225 234 210 223 208 38 93 123 97 90 76 75 71 65 64 62 60 52 44 43 42 42 41 38 43 48 53 61 93 106 103 98 92 78 67 61 53 60 63
237 256 234 245 253 206 258 228 199 178 148 217 167 157 166 123 92 78 74 69 64 59 56 51 46 44 42 38 38 44 49 53 60 83 114 116 116 107 86 81 75 64 60 63
247 239 236 250 247 200 229 237 180 167 152 124 115 139 201 152 134 110 93 83 73 66 62 58 53 50 47 43 43 45 52 54 58 73 96 106 104 101 99 90 82 71 61 58
249 250 220 230 251 213 209 66 63 60 82 111 230 156 200 194 170 140 116 96 83 72 63 58 56 55 52 49 48 49 58 57 58 68 79 93 103 103 99 92 88 79 68 61
308 298 258 227 295 351 96 94 42 8 21 251 269 134 212 175 147 139 131 112 92 80 72 61 57 56 54 54 52 56 62 62 61 69 73 80 88 91 91 90 84 81 74 66
287 298 281 236 198 208 189 143 157 191 203 255 347 136 97 96 108 115 117 113 101 88 79 69 60 59 58 58 56 60 65 66 66 71 75 76 79 82 83 82 84 81 78 73
206 265 286 262 228 165 157 179 168 134 119 105 178 128 122 124 122 123 121 115 104 93 83 74 66 62 61 61 58 62 69 70 69 73 76 76 77 80 83 83 81 79 77 77
175 251 292 303 32 17 155 150 103 119 144 194 213 202 195 175 161 145 136 127 115 104 93 82 72 67 67 68 68 66 70 74 72 73 77 80 77 79 82 82 79 78 73 72
148 184 307 355 48 247 98 102 108 116 148 153 197 242 225 179 163 151 139 131 125 116 108 99 88 77 76 74 73 73 72 75 75 75 77 79 78 77 78 78 77 77 75 72
141 129 277 284 270 220 163 162 149 149 192 163 162 249 359 143 140 138 134 130 126 120 115 109 101 91 83 79 78 77 77 77 76 78 80 79 78 77 77 77 75 77 76 72
139 115 46 340 340 359 43 126 141 122 117 150 159 204 85 117 126 131 133 133 129 125 120 114 106 98 94 90 87 84 81 81 81 82 82 79 76 75 75 76 75 75 75 71
117 116 164 199 226 244 298 357 138 121 141 182 190 160 151 141 138 137 137 135 132 129 125 119 113 107 104 99 94 93 88 87 89 86 84 80 76 77 78 75 73 73 75 74
109 125 195 247 265 181 282 22 117 141 178 174 179 162 167 159 151 146 142 139 138 134 130 125 122 118 112 105 99 95 92 89 89 88 83 81 80 78 76 73 71 71 69 72
98 124 94 12 21 86 65 41 59 71 99 118 120 112 130 132 132 140 145 145 144 140 135 131 128 125 122 119 114 107 100 96 95 92 89 85 81 76 71 69 70 70 65 63
114 124 115 223 337 38 346 320 63 85 72 135 156 154 138 139 150 153 152 151 147 143 139 138 136 133 132 129 124 121 117 109 100 95 89 84 83 77 67 72 72 71 68 69
125 108 112 119 85 249 262 308 133 108 63 90 119 134 143 136 127 128 144 146 143 142 140 138 136 130 124 119 118 116 113 108 102 95 88 88 89 81 74 73 73 70 71 75
124 126 116 121 160 283 286 200 147 122 58 106 126 127 119 115 101 98 120 132 136 136 135 133 132 127 123 123 122 115 113 108 103 103 102 99 100 95 85 79 73 65 73 70
74 93 110 125 153 234 251 222 142 100 19 152 141 141 141 135 136 150 139 129 126 125 125 124 121 117 121 127 125 119 122 120 121 124 114 101 104 108 99 89 73 59 80 78
76 62 101 138 189 261 274 146 121 155 235 158 149 148 146 139 141 136 133 127 127 127 128 127 124 123 130 131 123 120 124 138 152 130 111 96 95 104 106 91 72 74 79 72
155 144 157 138 172 256 350 132 170 208 128 126 130 132 118 112 116 124 128 129 130 129 130 129 124 120 121 128 125 124 133 147 126 112 101 90 78 79 96 92 72 64 78 77
148 174 168 170 200 258 341 70 81 128 120 118 124 123 123 123 126 127 128 130 130 130 128 124 125 119 115 125 130 130 140 126 112 101 91 84 80 74 81 93 86 67 65 73
149 128 108 102 40 45 54 62 69 94 109 118 125 127 128 128 131 129 130 129 128 125 125 126 124 122 121 121 122 133 138 125 115 110 101 97 93 76 64 70 86 93 92 89
168 130 107 109 134 96 54 82 101 98 104 109 111 117 127 129 131 132 131 129 126 124 122 127 129 128 131 126 120 127 125 117 111 110 105 101 94 91 77 64 70 124 194 196
183 163 163 193 186 155 152 135 122 115 117 122 118 112 118 126 128 127 126 126 127 126 123 124 125 128 133 130 126 125 129 127 125 120 120 126 126 107 111 100 38 14 236 246